Location: *
(45.9500°N, 9.0833°E)
Time: 23:47:39
(UTC+00:00)

Vanguard 2 Rocket - Pass Details

Date: 19 June 2021
Orbit: 555 x 3325 km, 32.9° (Epoch: 03 August)

Event Time Altitude Azimuth Distance (km) Brightness Sun altitude
Rises 19:48:04 0° 245° (WSW) 7,309 11.9 -5.0°
Reaches altitude 10° 19:53:22 10° 241° (WSW) 6,232 11.4 -5.7°
Maximum altitude 20:11:11 48° 176° (S) 3,225 9.4 -7.9°
Drops below altitude 10° 20:23:08 10° 107° (ESE) 4,298 9.8 -9.3°
Sets 20:26:02 0° 101° (ESE) 4,971 10.2 -9.6°
Enters shadow 20:26:05 - 101° (E) 4,983 10.2 -9.6°
